This is the latest recevied weather packets stored in our database for station/object K8RRT. If no packets are shown the sender has not sent any weather packets the latest 10 day(s).
| Time | Temp. | Humidity | Pressure | Rain* | Wind** | Luminosity | Snow |
|---|---|---|---|---|---|---|---|
| 1777142353 | 21.67° C | 72% | 1006.2 hPa | 0 mm | - | 310 W/m² | - |
| 1777142052 | 21.11° C | 74% | 1006.2 hPa | 0 mm | - | 419 W/m² | - |
| 1777141748 | 21.11° C | 75% | 1006.5 hPa | 0 mm | - | 347 W/m² | - |
| 1777141446 | 20.56° C | 74% | 1006.3 hPa | 0 mm | - | 345 W/m² | - |
| 1777141144 | 20.56° C | 74% | 1006.3 hPa | 0 mm | - | 256 W/m² | - |
| 1777140840 | 20.56° C | 75% | 1006.4 hPa | 0 mm | - | 216 W/m² | - |
| 1777140536 | 20.56° C | 76% | 1006.2 hPa | 0 mm | - | 314 W/m² | - |
| 1777140234 | 20.56° C | 77% | 1006.5 hPa | 0 mm | - | 368 W/m² | - |
| 1777139931 | 20.56° C | 76% | 1006.2 hPa | 0 mm | - | 328 W/m² | - |
| 1777139629 | 20.56° C | 76% | 1006.1 hPa | 0 mm | - | 303 W/m² | - |
| 1777139323 | 20.56° C | 77% | 1006.1 hPa | 0 mm | - | 289 W/m² | - |
| 1777139020 | 20.56° C | 76% | 1006.2 hPa | 0 mm | - | 308 W/m² | - |
| 1777138717 | 20.56° C | 76% | 1006.3 hPa | 0 mm | - | 353 W/m² | - |
| 1777138412 | 20.56° C | 76% | 1006 hPa | 0 mm | - | 351 W/m² | - |
| 1777138108 | 20.56° C | 77% | 1006.1 hPa | 0 mm | - | 276 W/m² | - |
| 1777137805 | 20.56° C | 76% | 1006.2 hPa | 0 mm | - | 193 W/m² | - |
| 1777137501 | 20.56° C | 75% | 1006.2 hPa | 0 mm | - | 223 W/m² | - |
| 1777137198 | 20.56° C | 76% | 1006.1 hPa | 0 mm | - | 225 W/m² | - |
| 1777136895 | 20.56° C | 77% | 1006.3 hPa | 0 mm | - | 162 W/m² | - |
| 1777136591 | 20.56° C | 76% | 1006 hPa | 0 mm | - | 94 W/m² | - |
| 1777136289 | 20.56° C | 75% | 1006 hPa | 0 mm | - | 72 W/m² | - |
| 1777135987 | 20.56° C | 74% | 1006.2 hPa | 0 mm | - | 160 W/m² | - |
| 1777135687 | 20.56° C | 75% | 1006.2 hPa | 0 mm | - | 363 W/m² | - |
| 1777135384 | 20.56° C | 77% | 1006.3 hPa | 0 mm | - | 337 W/m² | - |
| 1777135081 | 20.56° C | 77% | 1006.3 hPa | 0 mm | - | 491 W/m² | - |
* Rain latest hour (hover to see other rain measurements)
** Current wind speed in m/s (hover to see current wind gust speed)